Location: *
(43.0833°N, 13.0500°E)
Time: 16:00:41
(UTC+00:00)

Okean-O - Pass Details

Date: 15 November 2019
Orbit: 638 x 641 km, 98.2° (Epoch: 11 December)

Event Time Altitude Azimuth Distance (km) Brightness Sun altitude
Rises 17:02:24 0° 171° (S) 2,932 6.1 -14.3°
Reaches altitude 10° 17:04:36 10° 174° (S) 2,028 5.3 -14.7°
Maximum altitude 17:09:00 70° 258° (WSW) 685 2.9 -15.5°
Drops below altitude 10° 17:13:26 10° 342° (NNW) 2,042 5.3 -16.3°
Sets 17:15:40 0° 345° (NNW) 2,956 6.1 -16.7°
